Home > Weather > Germany > Soltau > Past weeks

Flag for Germany Weather past 2 weeks in Soltau, Lower Saxony, Germany

45 °F

Partly sunny.

Feels Like: 40 °F
Forecast: 45 / 50 °F
Wind: 9 mph from West

Location: Fassberg

Current Time: Dec 1, 2015 at 2:42:52 PM

Latest Report: Dec 1, 2015 at 1:20 PM

Visibility: N/A

Pressure: 30.15 "Hg

Humidity: 81%

Dew point: 39 °F

Location of SoltauLocation

Historic Weather in Soltau — Graph


Soltau temperature yesterday

Maximum temperature yesterday: 48 °F (at 9:47 PM)
Minimum temperature yesterday: 37 °F (at 4:20 PM)
Average temperature yesterday: 43 °F

Past Weeks' High & Low Weather Summary

High57 °F (Nov 18, 12:20 AM)100% (Nov 17, 8:20 AM)30.18 "Hg (Nov 17, 8:20 AM)
Low28 °F (Nov 26, 10:20 PM)61% (Nov 24, 12:20 PM)29.33 "Hg (Nov 21, 3:20 AM)
Average42 °F87%29.73 "Hg
* Reported Nov 16 1:20 PM — Dec 1 1:20 PM, Soltau, Weather by CustomWeather, © 2015

Note: Actual official high and low records may vary slightly from our data, if they occured in-between our weather recording intervals... More about our weather records


Soltau weather history for previous 24 hours

Time TempWeatherWind HumidityBarometerVisibility
1:20 PM
Tue, Dec 1
45 °FPartly sunny.9 mph81%30.15 "HgN/A
12:20 PM43 °FPartly sunny.8 mph87%30.12 "HgN/A
11:20 AM43 °FPartly sunny.9 mph87%30.12 "HgN/A
10:20 AM43 °FBroken clouds.9 mph87%30.09 "HgN/A
9:20 AM39 °FScattered clouds.8 mph93%30.09 "HgN/A
8:20 AM41 °FBroken clouds.10 mph93%30.07 "HgN/A
7:20 AM41 °FPartly cloudy.8 mph93%30.04 "HgN/A
6:20 AM41 °FPartly cloudy.9 mph93%30.01 "HgN/A
5:20 AM41 °FLight rain. Passing clouds.9 mph93%29.98 "HgN/A
4:45 AM41 °FPassing clouds.12 mph93%29.98 "HgN/A
4:20 AM41 °FPassing clouds.9 mph93%29.95 "HgN/A
3:20 AM41 °FPassing clouds.10 mph93%29.92 "HgN/A
2:20 AM41 °FPassing clouds.12 mph93%29.86 "HgN/A
1:20 AM41 °FPassing clouds.17 mph93%29.83 "HgN/A
12:20 AM45 °FPartly cloudy.15 mph93%29.74 "HgN/A
12:00 AM46 °FPartly cloudy.13 mph93%29.71 "HgN/A
11:48 PM
Mon, Nov 30
46 °FPartly cloudy.14 mph93%29.68 "HgN/A
11:20 PM46 °FRain showers. Passing clouds.17 mph93%29.65 "Hg1 mi
10:20 PM48 °FPartly cloudy.16 mph100%29.62 "Hg2 mi
9:47 PM48 °FRain. Passing clouds.15 mph94%29.62 "Hg4 mi
9:20 PM46 °FLight rain. Partly cloudy.10 mph93%29.62 "Hg4 mi
8:20 PM43 °FRain. Fog.9 mph93%29.65 "Hg3 mi
7:20 PM39 °FLight rain. Fog.5 mph100%29.68 "Hg2 mi
6:46 PM37 °FLight rain. Fog.6 mph93%29.68 "Hg3 mi
6:20 PM37 °FLight rain. Fog.6 mph93%29.71 "Hg3 mi
5:20 PM37 °FLight rain. Fog.6 mph93%29.77 "Hg3 mi
4:20 PM37 °FLight rain. Mostly cloudy.9 mph87%29.83 "Hg4 mi
3:20 PM41 °FLight rain. More clouds than sun.16 mph70%29.86 "HgN/A
2:20 PM43 °FLight rain. Overcast.21 mph66%29.86 "HgN/A
Weather by CustomWeather, © 2015

See weather overviewHow to use our weather pages